Date String (YYYY-MM-DD hh:mm:ss) UTC,Instrument flags,absolute air pressure of the measurement (hPa),sample flow rate (lpm),inlet stack bypass flow (lpm),air temperature of the measurement (°C),ambient temperature measured by the external sensor (°C),aerosol sample conditioner tube jacket temperature (°C),OPC LED temperature (°C),internal box temperature (°C),relative humidity of the measurement (%),span deviation,mass concentration of particles derived from Lorenz-Mie calculation of OPC scattering (μg/m³),mass concentration of particles derived from Lorenz-Mie calculation of OPC scattering (μg/m³),mass concentration of particles derived from Lorenz-Mie calculation of OPC scattering (μg/m³)
DateTimeUTC,F1_M11,P_M11,Q1_M11,Q2_M11,T1_M11,T2_M11,T3_M11,T4_M11,T5_M11,U1_M11,ZSPAN_M11,X0_M11,X2_M11,X1_M11
2024-05-30 20:00:00,SystemResetWarning,0828.6,5.00,000.00,030.0,029.5,000.0,038.1,031.8,017.9,0000.0,0022.17,0005.39,0003.59
2024-05-30 20:01:00,SystemResetWarning,0828.6,5.00,000.00,030.0,029.5,000.0,038.1,031.8,018.2,0000.0,0021.28,0005.39,0003.58
2024-05-30 20:02:00,SystemResetWarning,0828.6,4.98,000.00,030.0,028.3,000.0,038.2,031.2,018.0,0000.0,0019.86,0005.33,0003.57
2024-05-30 20:03:00,SystemResetWarning,0828.5,5.02,000.00,029.6,026.7,000.0,038.2,030.5,018.4,0000.0,0020.50,0005.30,0003.57
2024-05-30 20:04:00,SystemResetWarning,0828.5,5.00,000.00,029.5,027.0,000.0,038.2,030.5,019.1,0000.0,0019.56,0005.17,0003.56
2024-05-30 20:05:00,SystemResetWarning,0828.6,4.99,000.00,029.4,027.3,000.0,038.1,030.7,019.4,0000.0,0018.35,0005.07,0003.55
2024-05-30 20:06:00,SystemResetWarning,0828.6,5.00,000.00,029.4,027.7,000.0,038.0,030.9,018.8,0000.0,0018.81,0005.01,0003.57
2024-05-30 20:07:00,SystemResetWarning,0828.6,5.01,000.00,029.5,028.0,000.0,037.9,031.0,019.1,0000.0,0019.09,0005.01,0003.58
2024-05-30 20:08:00,SystemResetWarning,0828.6,5.01,000.00,029.5,028.3,000.0,037.9,031.2,018.8,0000.0,0018.61,0005.05,0003.59
2024-05-30 20:09:00,SystemResetWarning,0828.5,4.98,000.00,029.6,028.5,000.0,037.9,031.3,020.2,0000.0,0018.46,0005.10,0003.61
2024-05-30 20:10:00,SystemResetWarning,0828.5,4.99,000.00,029.6,028.7,000.0,037.9,031.4,019.2,0000.0,0018.85,0005.18,0003.62
2024-05-30 20:11:00,SystemResetWarning,0828.5,5.01,000.00,029.7,028.9,000.0,037.9,031.4,018.5,0000.0,0019.32,0005.18,0003.63
2024-05-30 20:12:00,SystemResetWarning,0828.6,5.01,000.00,029.8,029.1,000.0,037.9,031.5,019.0,0000.0,0019.67,0005.15,0003.63
2024-05-30 20:13:00,SystemResetWarning,0828.6,4.99,000.00,029.8,029.2,000.0,038.0,031.6,018.2,0000.0,0019.53,0005.17,0003.64
2024-05-30 20:14:00,SystemResetWarning,0828.6,4.99,000.00,029.9,029.3,000.0,038.0,031.7,017.9,0000.0,0018.55,0005.11,0003.64
2024-05-30 20:15:00,SystemResetWarning,0828.5,5.00,000.00,029.9,029.4,000.0,038.1,031.8,017.8,0000.0,0017.28,0005.07,0003.64
2024-05-30 20:16:00,SystemResetWarning,0828.5,5.01,000.00,030.0,029.5,000.0,038.1,031.8,018.3,0000.0,0018.26,0005.12,0003.64
2024-05-30 20:17:00,SystemResetWarning,0828.5,5.00,000.00,030.0,029.2,000.0,038.1,031.6,018.3,0000.0,0018.48,0005.16,0003.64
2024-05-30 20:18:00,SystemResetWarning,0828.4,4.99,000.00,029.7,027.1,000.0,038.2,030.6,018.8,0000.0,0018.41,0005.17,0003.63
2024-05-30 20:19:00,SystemResetWarning,0828.4,5.02,000.00,029.5,026.7,000.0,038.2,030.4,019.1,0000.0,0018.73,0005.15,0003.63
2024-05-30 20:20:00,SystemResetWarning,0828.4,4.98,000.00,029.4,027.1,000.0,038.1,030.5,019.4,0000.0,0021.14,0005.31,0003.65
2024-05-30 20:21:00,SystemResetWarning,0828.4,5.00,000.00,029.4,027.5,000.0,038.0,030.8,018.4,0000.0,0024.65,0005.50,0003.66
2024-05-30 20:22:00,SystemResetWarning,0828.4,5.01,000.00,029.4,027.8,000.0,037.9,031.0,018.9,0000.0,0026.09,0005.50,0003.66
2024-05-30 20:23:00,SystemResetWarning,0828.4,5.01,000.00,029.5,028.1,000.0,037.9,031.1,018.0,0000.0,0028.21,0005.52,0003.66
2024-05-30 20:24:00,SystemResetWarning,0828.4,5.01,000.00,029.5,028.4,000.0,037.9,031.2,017.9,0000.0,0031.62,0005.54,0003.66
2024-05-30 20:25:00,SystemResetWarning,0828.4,5.00,000.00,029.6,028.6,000.0,037.9,031.3,017.8,0000.0,0032.98,0005.61,0003.65
2024-05-30 20:26:00,SystemResetWarning,0828.4,4.99,000.00,029.7,028.8,000.0,037.9,031.4,018.2,0000.0,0034.40,0005.64,0003.64
2024-05-30 20:27:00,SystemResetWarning,0828.4,5.00,000.00,029.7,029.0,000.0,037.9,031.5,017.9,0000.0,0035.78,0005.65,0003.63
2024-05-30 20:28:00,SystemResetWarning,0828.4,5.01,000.00,029.8,029.1,000.0,037.9,031.6,017.8,0000.0,0036.85,0005.67,0003.62
2024-05-30 20:29:00,SystemResetWarning,0828.4,5.01,000.00,029.8,029.2,000.0,038.0,031.7,017.9,0000.0,0036.71,0005.65,0003.61
2024-05-30 20:30:00,SystemResetWarning,0828.4,4.99,000.00,029.9,029.3,000.0,038.0,031.7,017.6,0000.0,0036.48,0005.72,0003.60
2024-05-30 20:31:00,SystemResetWarning,0828.4,4.99,000.00,029.9,029.4,000.0,038.0,031.8,018.5,0000.0,0034.90,0005.63,0003.59
2024-05-30 20:32:00,SystemResetWarning,0828.4,5.00,000.00,030.0,029.5,000.0,038.1,031.8,018.5,0000.0,0031.45,0005.38,0003.57
2024-05-30 20:33:00,SystemResetWarning,0828.4,4.99,000.00,029.9,028.1,000.0,038.1,031.1,018.7,0000.0,0031.27,0005.47,0003.56
2024-05-30 20:34:00,SystemResetWarning,0828.3,5.00,000.00,029.4,025.8,000.0,038.1,029.9,018.6,0000.0,0028.90,0005.45,0003.56
2024-05-30 20:35:00,SystemResetWarning,0828.3,5.01,000.00,029.1,025.7,000.0,038.1,029.8,018.3,0000.0,0025.92,0005.43,0003.55
2024-05-30 20:36:00,SystemResetWarning,0828.3,5.01,000.00,029.1,026.3,000.0,038.0,030.0,018.3,0000.0,0024.90,0005.43,0003.54
2024-05-30 20:37:00,SystemResetWarning,0828.3,4.99,000.00,029.0,026.7,000.0,037.8,030.3,018.0,0000.0,0024.43,0005.44,0003.54
2024-05-30 20:38:00,SystemResetWarning,0828.3,5.01,000.00,029.1,027.2,000.0,037.7,030.5,017.7,0000.0,0021.62,0005.34,0003.53
2024-05-30 20:39:00,SystemResetWarning,0828.3,5.01,000.00,029.1,027.5,000.0,037.7,030.7,018.0,0000.0,0019.95,0005.23,0003.52
2024-05-30 20:40:00,SystemResetWarning,0828.3,5.00,000.00,029.2,027.9,000.0,037.7,030.8,018.8,0000.0,0019.67,0005.20,0003.51
2024-05-30 20:41:00,SystemResetWarning,0828.3,5.00,000.00,029.2,028.1,000.0,037.7,030.9,018.5,0000.0,0020.20,0005.15,0003.50
2024-05-30 20:42:00,SystemResetWarning,0828.3,4.99,000.00,029.3,028.4,000.0,037.7,031.0,018.5,0000.0,0019.55,0005.11,0003.48
2024-05-30 20:43:00,SystemResetWarning,0828.3,5.00,000.00,029.4,028.6,000.0,037.7,031.1,017.4,0000.0,0018.91,0005.06,0003.46
2024-05-30 20:44:00,SystemResetWarning,0828.3,5.01,000.00,029.4,028.7,000.0,037.7,031.2,017.2,0000.0,0017.48,0004.92,0003.46
2024-05-30 20:45:00,SystemResetWarning,0828.3,5.00,000.00,029.5,028.9,000.0,037.7,031.3,017.0,0000.0,0016.75,0004.91,0003.45
2024-05-30 20:46:00,SystemResetWarning,0828.3,5.00,000.00,029.5,029.0,000.0,037.8,031.3,017.3,0000.0,0016.81,0004.94,0003.45
2024-05-30 20:47:00,SystemResetWarning,0828.4,5.00,000.00,029.6,029.1,000.0,037.8,031.4,016.9,0000.0,0016.42,0004.88,0003.44
2024-05-30 20:48:00,SystemResetWarning,0828.3,5.00,000.00,029.7,029.2,000.0,037.8,031.5,016.5,0000.0,0014.78,0004.80,0003.43
2024-05-30 20:49:00,SystemResetWarning,0828.3,5.00,000.00,029.7,029.3,000.0,037.9,031.5,016.6,0000.0,0014.99,0004.81,0003.43
2024-05-30 20:50:00,SystemResetWarning,0828.3,5.00,000.00,029.8,029.3,000.0,037.9,031.6,016.7,0000.0,0015.04,0004.85,0003.42
2024-05-30 20:51:00,SystemResetWarning,0828.3,5.00,000.00,029.8,029.4,000.0,037.9,031.7,017.2,0000.0,0016.01,0004.89,0003.42
2024-05-30 20:52:00,SystemResetWarning,0828.4,5.00,000.00,029.9,029.5,000.0,038.0,031.8,016.8,0000.0,0016.61,0004.84,0003.41
2024-05-30 20:53:00,SystemResetWarning,0828.4,5.01,000.00,030.0,029.6,000.0,038.0,031.8,017.2,0000.0,0016.60,0004.78,0003.41
2024-05-30 20:54:00,SystemResetWarning,0828.4,5.00,000.00,030.0,028.8,000.0,038.1,031.4,017.3,0000.0,0017.02,0004.81,0003.40
2024-05-30 20:55:00,SystemResetWarning,0828.4,4.99,000.00,029.6,026.8,000.0,038.1,030.5,017.3,0000.0,0018.31,0004.83,0003.37
2024-05-30 20:56:00,SystemResetWarning,0828.3,5.02,000.00,029.4,026.8,000.0,038.1,030.4,017.3,0000.0,0020.01,0004.85,0003.36
2024-05-30 20:57:00,SystemResetWarning,0828.4,4.99,000.00,029.3,027.2,000.0,038.0,030.5,017.3,0000.0,0020.85,0004.85,0003.34
2024-05-30 20:58:00,SystemResetWarning,0828.4,4.99,000.00,029.4,027.5,000.0,037.9,030.8,017.7,0000.0,0021.12,0004.86,0003.33
2024-05-30 20:59:00,SystemResetWarning,0828.4,5.01,000.00,029.4,027.9,000.0,037.9,030.9,016.4,0000.0,0021.11,0004.84,0003.32
